Location: Aulagny
(45.1643°N, 4.3096°E)
Time: 03:34:34
(UTC+00:00)

Cosmos 2058 - Pass Details

Date: 21 October 2019
Orbit: 562 x 584 km, 82.5° (Epoch: 19 November)

Event Time Altitude Azimuth Distance (km) Brightness Sun altitude
Rises 19:05:12 0° 346° (NNW) 2,820 6.8 -24.8°
Reaches altitude 10° 19:07:27 10° 341° (NNW) 1,914 5.9 -25.2°
Maximum altitude 19:11:32 49° 266° (W) 753 3.8 -25.9°
Enters shadow 19:12:59 33° 213° (SSW) 979 4.2 -26.2°
